Total_Precipitation_Accumulation
0.00 0.00 0.02 0.01 0.00 0.01 0.02 0.04 0.07 0.09 0.10 0.12 0.13 0.11 0.08 0.06 0.04 0.02 0.01 0.01 0.00 0.01 0.00 0.01 0.02 0.03 0.04 0.03 0.04 0.04 0.04 0.03 0.03 0.06 0.10 0.13 0.14 0.21 0.36 0.46 0.63 0.63 0.59
0.00 0.00 0.02 0.01 0.01 0.01 0.02 0.04 0.07 0.09 0.10 0.12 0.12 0.12 0.11 0.07 0.04 0.02 0.01 0.01 0.01 0.01 0.01 0.01 0.02 0.02 0.02 0.01 0.01 0.01 0.01 0.02 0.04 0.10 0.15 0.17 0.22 0.30 0.40 0.46 0.60 0.56 0.42
0.00 0.00 0.01 0.01 0.01 0.01 0.01 0.03 0.06 0.08 0.09 0.10 0.10 0.10 0.10 0.06 0.04 0.02 0.01 0.01 0.01 0.01 0.01 0.01 0.01 0.01 0.01 0.01 0.00 0.00 0.01 0.02 0.06 0.14 0.29 0.42 0.27 0.36 0.44 0.52 0.55 0.35 0.22
0.00 0.00 0.00 0.01 0.00 0.01 0.01 0.02 0.04 0.06 0.07 0.07 0.07 0.07 0.07 0.05 0.02 0.01 0.01 0.01 0.01 0.02 0.02 0.02 0.02 0.02 0.01 0.00 0.00 0.01 0.02 0.03 0.08 0.15 0.49 0.47 0.31 0.25 0.32 0.33 0.31 0.23 0.15
0.00 0.00 0.01 0.01 0.01 0.01 0.01 0.02 0.03 0.04 0.05 0.05 0.05 0.05 0.05 0.04 0.02 0.02 0.02 0.02 0.03 0.04 0.04 0.04 0.04 0.03 0.02 0.01 0.01 0.01 0.03 0.05 0.10 0.18 0.34 0.47 0.59 0.31 0.23 0.23 0.24 0.19 0.11
0.00 0.00 0.01 0.01 0.01 0.01 0.02 0.02 0.03 0.04 0.05 0.05 0.05 0.05 0.04 0.04 0.04 0.03 0.03 0.03 0.05 0.08 0.08 0.09 0.08 0.06 0.03 0.01 0.01 0.01 0.02 0.06 0.13 0.18 0.21 0.33 0.42 0.27 0.22 0.24 0.24 0.20 0.11
0.00 0.00 0.01 0.02 0.02 0.02 0.03 0.04 0.04 0.05 0.05 0.06 0.05 0.05 0.05 0.05 0.05 0.05 0.04 0.04 0.05 0.08 0.09 0.10 0.11 0.09 0.05 0.02 0.01 0.01 0.02 0.07 0.16 0.24 0.22 0.23 0.26 0.21 0.20 0.25 0.28 0.24 0.15
0.01 0.01 0.02 0.03 0.04 0.03 0.04 0.05 0.06 0.06 0.07 0.08 0.08 0.08 0.07 0.06 0.07 0.08 0.07 0.07 0.07 0.08 0.09 0.10 0.11 0.11 0.09 0.05 0.02 0.02 0.04 0.08 0.13 0.19 0.24 0.29 0.20 0.23 0.27 0.23 0.24 0.27 0.23
0.02 0.02 0.04 0.06 0.06 0.06 0.07 0.08 0.08 0.09 0.10 0.10 0.11 0.09 0.08 0.07 0.09 0.10 0.11 0.11 0.10 0.11 0.11 0.12 0.13 0.14 0.13 0.10 0.07 0.04 0.06 0.12 0.16 0.22 0.26 0.34 0.25 0.33 0.53 0.42 0.26 0.23 0.26
0.04 0.03 0.05 0.09 0.12 0.12 0.12 0.11 0.12 0.12 0.13 0.12 0.12 0.11 0.10 0.10 0.13 0.18 0.17 0.16 0.16 0.17 0.19 0.22 0.22 0.24 0.24 0.21 0.19 0.16 0.16 0.15 0.15 0.22 0.31 0.38 0.33 0.43 0.67 0.77 0.60 0.43 0.33
0.07 0.07 0.08 0.11 0.13 0.16 0.18 0.19 0.23 0.25 0.28 0.28 0.30 0.29 0.24 0.23 0.30 0.40 0.35 0.33 0.34 0.37 0.41 0.48 0.49 0.53 0.51 0.39 0.37 0.40 0.35 0.21 0.21 0.29 0.41 0.47 0.48 0.61 0.84 1.04 0.92 0.79 0.65
0.16 0.16 0.16 0.18 0.22 0.25 0.27 0.46 0.56 0.58 0.70 0.62 0.69 0.66 0.62 0.59 0.48 0.36 0.42 0.53 0.63 0.78 0.85 0.92 1.04 1.07 0.96 0.71 0.76 0.75 0.36 0.25 0.27 0.26 0.42 0.50 0.54 0.67 0.89 1.16 1.13 0.96 0.84
0.32 0.27 0.25 0.29 0.32 0.36 0.44 0.66 0.79 0.83 0.91 0.89 0.95 1.02 1.09 1.07 0.88 0.75 0.85 1.05 1.14 1.28 1.27 1.43 1.63 1.36 1.26 1.23 1.24 1.06 0.75 0.54 0.33 0.24 0.29 0.52 0.60 0.73 0.94 1.14 1.15 1.06 0.93
0.43 0.46 0.51 0.56 0.56 0.58 0.70 0.75 0.80 0.76 0.82 0.89 1.02 1.18 1.32 1.29 1.29 1.25 1.26 1.33 1.42 1.54 1.65 1.75 1.77 1.70 1.79 1.75 1.49 1.34 1.14 0.87 0.62 0.58 0.56 0.72 0.83 0.94 1.05 1.11 1.09 1.05 1.01
0.76 0.84 0.86 0.85 0.80 0.73 0.66 0.65 0.64 0.64 0.65 0.76 0.86 0.94 1.05 1.26 1.40 1.40 1.24 1.21 1.23 1.43 1.68 1.93 1.96 2.15 2.20 1.95 1.55 1.37 1.31 1.19 1.00 0.85 0.75 0.94 1.17 1.14 1.05 1.03 1.01 1.02 1.06
1.26 1.27 1.23 1.10 0.93 0.86 0.78 0.68 0.66 0.62 0.65 0.69 0.71 0.79 0.96 1.09 1.25 1.21 1.20 1.24 1.26 1.25 1.36 1.71 1.91 2.08 1.99 1.74 1.33 1.18 1.13 1.15 1.03 0.93 0.78 0.86 1.06 0.97 0.89 0.95 1.02 1.09 1.13
2.05 1.79 1.42 1.18 1.00 0.90 0.89 0.84 0.77 0.69 0.64 0.66 0.63 0.69 0.79 0.86 0.97 1.01 1.00 0.99 1.04 1.05 1.07 1.19 1.35 1.49 1.41 1.28 1.14 1.15 1.10 1.04 0.93 0.89 0.85 0.83 0.81 0.90 0.83 0.80 0.86 0.94 1.07
2.71 2.32 1.71 1.46 1.44 1.31 1.17 0.90 0.71 0.64 0.57 0.50 0.48 0.49 0.53 0.55 0.58 0.61 0.60 0.58 0.62 0.61 0.65 0.73 0.82 0.91 0.96 1.03 1.08 1.07 1.02 1.00 0.91 0.92 0.86 0.80 0.78 0.73 0.83 0.83 0.80 0.82 0.89
3.06 2.90 2.30 2.11 2.13 1.61 1.00 0.68 0.54 0.47 0.39 0.35 0.37 0.35 0.37 0.39 0.40 0.43 0.42 0.41 0.40 0.38 0.39 0.40 0.49 0.59 0.67 0.74 0.74 0.75 0.73 0.67 0.63 0.63 0.65 0.56 0.57 0.53 0.60 0.72 0.79 0.77 0.82
2.18 2.08 1.93 1.91 1.55 1.03 0.60 0.42 0.31 0.27 0.23 0.21 0.25 0.27 0.28 0.31 0.33 0.36 0.34 0.33 0.29 0.27 0.29 0.34 0.38 0.41 0.42 0.46 0.41 0.41 0.46 0.39 0.37 0.32 0.31 0.32 0.34 0.33 0.38 0.51 0.57 0.54 0.66
0.88 0.88 0.99 0.94 0.83 0.52 0.36 0.23 0.16 0.14 0.13 0.13 0.16 0.16 0.19 0.23 0.28 0.34 0.29 0.32 0.29 0.24 0.24 0.26 0.29 0.30 0.28 0.29 0.28 0.24 0.20 0.20 0.20 0.16 0.16 0.20 0.25 0.30 0.36 0.47 0.48 0.43 0.42
0.40 0.46 0.48 0.49 0.41 0.25 0.17 0.15 0.13 0.11 0.08 0.07 0.07 0.09 0.09 0.12 0.17 0.23 0.30 0.25 0.25 0.25 0.25 0.24 0.26 0.25 0.22 0.24 0.28 0.24 0.16 0.14 0.16 0.11 0.19 0.22 0.25 0.38 0.45 0.48 0.47 0.45 0.41
0.46 0.40 0.25 0.25 0.20 0.13 0.11 0.10 0.10 0.10 0.10 0.09 0.08 0.07 0.08 0.07 0.09 0.14 0.21 0.24 0.27 0.24 0.27 0.32 0.30 0.27 0.21 0.19 0.24 0.29 0.21 0.14 0.16 0.18 0.22 0.24 0.29 0.40 0.46 0.51 0.52 0.53 0.50
0.26 0.26 0.21 0.20 0.20 0.12 0.09 0.08 0.08 0.07 0.08 0.08 0.07 0.06 0.07 0.06 0.07 0.08 0.10 0.15 0.22 0.26 0.33 0.26 0.29 0.30 0.25 0.19 0.19 0.21 0.20 0.20 0.20 0.20 0.24 0.24 0.29 0.36 0.37 0.37 0.40 0.47 0.48
0.05 0.11 0.16 0.25 0.29 0.20 0.14 0.10 0.09 0.07 0.06 0.07 0.07 0.07 0.08 0.10 0.11 0.12 0.12 0.11 0.12 0.19 0.26 0.29 0.35 0.32 0.32 0.27 0.22 0.19 0.20 0.18 0.18 0.16 0.17 0.22 0.23 0.19 0.21 0.26 0.32 0.43 0.42
0.04 0.06 0.09 0.19 0.26 0.21 0.16 0.14 0.15 0.15 0.13 0.12 0.11 0.11 0.14 0.17 0.19 0.19 0.20 0.20 0.19 0.17 0.17 0.19 0.24 0.30 0.35 0.36 0.28 0.22 0.24 0.21 0.16 0.14 0.10 0.11 0.18 0.14 0.15 0.18 0.26 0.36 0.39